Time,TemperatureF,DewpointF,PressureIn,WindDirection,WindDirectionDegrees,WindSpeedMPH,WindSpeedGustMPH,Humidity,HourlyPrecipIn,Conditions,Clouds,dailyrainin,SoftwareType,DateUTC
2013-02-20 00:00:00,26.2,6.3,30.27,WNW,292,2.9,10.5,42,0.00,,CLR,0.00,VWS V14.01,2013-02-20 05:00:00,
2013-02-20 00:05:00,26.2,6.3,30.27,WNW,292,2.9,10.5,42,0.00,,CLR,0.00,VWS V14.01,2013-02-20 05:05:00,
2013-02-20 00:10:00,26.1,6.1,30.27,WNW,292,5.6,10.5,42,0.00,,CLR,0.00,VWS V14.01,2013-02-20 05:10:00,
2013-02-20 00:15:00,26.1,6.1,30.27,WNW,292,1.6,10.5,42,0.00,,CLR,0.00,VWS V14.01,2013-02-20 05:15:00,
2013-02-20 00:20:00,26.1,6.1,30.27,NW,315,3.1,10.5,42,0.00,,CLR,0.00,VWS V14.01,2013-02-20 05:20:00,
2013-02-20 00:25:00,26.1,6.1,30.24,WNW,292,4.3,10.5,42,0.00,,CLR,0.00,VWS V14.01,2013-02-20 05:25:00,
2013-02-20 00:30:00,25.9,6.0,30.24,WNW,292,0.9,10.5,42,0.00,,CLR,0.00,VWS V14.01,2013-02-20 05:30:00,
2013-02-20 00:35:00,25.9,6.5,30.24,WSW,248,2.5,10.5,43,0.00,,CLR,0.00,VWS V14.01,2013-02-20 05:35:00,
2013-02-20 00:40:00,25.9,6.0,30.24,NW,315,1.6,10.5,42,0.00,,CLR,0.00,VWS V14.01,2013-02-20 05:40:00,
2013-02-20 00:45:00,25.9,6.0,30.24,WSW,248,2.7,10.5,42,0.00,,CLR,0.00,VWS V14.01,2013-02-20 05:45:00,
2013-02-20 00:50:00,26.1,6.6,30.24,WSW,248,3.4,10.5,43,0.00,,CLR,0.00,VWS V14.01,2013-02-20 05:50:00,
2013-02-20 00:55:00,26.2,6.8,30.24,WNW,292,3.4,3.4,43,0.00,,CLR,0.00,VWS V14.01,2013-02-20 05:55:00,
2013-02-20 01:00:00,26.4,7.0,30.24,West,270,3.4,5.4,43,0.00,,CLR,0.00,VWS V14.01,2013-02-20 06:00:00,
2013-02-20 01:05:00,26.4,6.4,30.24,WSW,248,2.9,5.4,42,0.00,,CLR,0.00,VWS V14.01,2013-02-20 06:05:00,
2013-02-20 01:10:00,26.4,6.4,30.27,West,270,2.5,5.4,42,0.00,,CLR,0.00,VWS V14.01,2013-02-20 06:10:00,
2013-02-20 01:15:00,26.6,7.1,30.27,West,270,2.9,5.4,43,0.00,,CLR,0.00,VWS V14.01,2013-02-20 06:15:00,
2013-02-20 01:20:00,26.6,6.6,30.27,WNW,292,2.7,5.4,42,0.00,,CLR,0.00,VWS V14.01,2013-02-20 06:20:00,
2013-02-20 01:25:00,26.6,6.6,30.27,West,270,3.1,5.4,42,0.00,,CLR,0.00,VWS V14.01,2013-02-20 06:25:00,
2013-02-20 01:30:00,26.8,6.8,30.27,West,270,2.5,5.4,42,0.00,,CLR,0.00,VWS V14.01,2013-02-20 06:30:00,
2013-02-20 01:35:00,26.8,6.8,30.27,WSW,248,2.7,5.4,42,0.00,,CLR,0.00,VWS V14.01,2013-02-20 06:35:00,
2013-02-20 01:40:00,26.8,6.8,30.27,West,270,2.9,5.4,42,0.00,,CLR,0.00,VWS V14.01,2013-02-20 06:40:00,
2013-02-20 01:45:00,27.0,6.9,30.27,WNW,292,2.7,5.4,42,0.00,,CLR,0.00,VWS V14.01,2013-02-20 06:45:00,
2013-02-20 01:50:00,27.0,6.9,30.27,WSW,248,2.7,5.4,42,0.00,,CLR,0.00,VWS V14.01,2013-02-20 06:50:00,
2013-02-20 01:55:00,27.0,6.9,30.27,NW,315,2.9,2.9,42,0.00,,CLR,0.00,VWS V14.01,2013-02-20 06:55:00,
2013-02-20 02:00:00,27.0,6.9,30.27,WNW,292,3.1,5.8,42,0.00,,CLR,0.00,VWS V14.01,2013-02-20 07:00:00,
2013-02-20 02:05:00,27.0,6.9,30.27,WNW,292,2.9,5.8,42,0.00,,CLR,0.00,VWS V14.01,2013-02-20 07:05:00,
2013-02-20 02:10:00,27.0,6.4,30.27,WNW,292,2.9,5.8,41,0.00,,CLR,0.00,VWS V14.01,2013-02-20 07:10:00,
2013-02-20 02:15:00,26.8,6.2,30.27,WNW,292,3.6,7.4,41,0.00,,CLR,0.00,VWS V14.01,2013-02-20 07:15:00,
2013-02-20 02:20:00,26.8,6.2,30.27,WNW,292,2.7,7.4,41,0.00,,CLR,0.00,VWS V14.01,2013-02-20 07:20:00,
2013-02-20 02:25:00,26.6,6.1,30.27,WNW,292,2.9,7.4,41,0.00,,CLR,0.00,VWS V14.01,2013-02-20 07:25:00,
2013-02-20 02:30:00,26.6,6.1,30.27,WNW,292,2.9,7.4,41,0.00,,CLR,0.00,VWS V14.01,2013-02-20 07:30:00,
2013-02-20 02:35:00,26.6,6.1,30.27,WSW,248,2.5,7.4,41,0.00,,CLR,0.00,VWS V14.01,2013-02-20 07:35:00,
2013-02-20 02:40:00,26.6,6.1,30.27,West,270,3.1,7.4,41,0.00,,CLR,0.00,VWS V14.01,2013-02-20 07:40:00,
2013-02-20 02:45:00,26.6,6.1,30.27,WNW,292,3.1,7.4,41,0.00,,CLR,0.00,VWS V14.01,2013-02-20 07:45:00,
2013-02-20 02:50:00,26.6,6.1,30.27,WNW,292,2.7,7.4,41,0.00,,CLR,0.00,VWS V14.01,2013-02-20 07:50:00,
2013-02-20 02:55:00,26.6,6.1,30.30,WNW,292,3.4,7.4,41,0.00,,CLR,0.00,VWS V14.01,2013-02-20 07:55:00,
2013-02-20 03:00:00,26.6,5.6,30.30,WNW,292,4.3,7.8,40,0.00,,CLR,0.00,VWS V14.01,2013-02-20 08:00:00,
2013-02-20 03:05:00,26.6,6.1,30.30,WNW,292,4.3,7.8,41,0.00,,CLR,0.00,VWS V14.01,2013-02-20 08:05:00,
2013-02-20 03:10:00,26.6,5.6,30.27,WNW,292,2.5,7.8,40,0.00,,CLR,0.00,VWS V14.01,2013-02-20 08:10:00,
2013-02-20 03:15:00,26.6,5.6,30.27,WNW,292,3.8,7.8,40,0.00,,CLR,0.00,VWS V14.01,2013-02-20 08:15:00,
2013-02-20 03:20:00,26.6,5.6,30.27,West,270,3.6,7.8,40,0.00,,CLR,0.00,VWS V14.01,2013-02-20 08:20:00,
2013-02-20 03:25:00,26.6,5.6,30.30,WSW,248,2.9,7.8,40,0.00,,CLR,0.00,VWS V14.01,2013-02-20 08:25:00,
2013-02-20 03:30:00,26.4,5.4,30.30,WSW,248,4.0,7.8,40,0.00,,CLR,0.00,VWS V14.01,2013-02-20 08:30:00,
2013-02-20 03:35:00,26.1,5.1,30.30,WNW,292,2.7,7.8,40,0.00,,CLR,0.00,VWS V14.01,2013-02-20 08:35:00,
2013-02-20 03:40:00,25.9,4.9,30.30,NNW,338,3.1,7.8,40,0.00,,CLR,0.00,VWS V14.01,2013-02-20 08:40:00,
2013-02-20 03:45:00,25.7,4.7,30.30,WNW,292,1.1,7.8,40,0.00,,CLR,0.00,VWS V14.01,2013-02-20 08:45:00,
2013-02-20 03:50:00,25.3,4.9,30.30,West,270,3.8,7.8,41,0.00,,CLR,0.00,VWS V14.01,2013-02-20 08:50:00,
2013-02-20 03:55:00,25.3,4.9,30.30,NW,315,4.3,7.8,41,0.00,,CLR,0.00,VWS V14.01,2013-02-20 08:55:00,
2013-02-20 04:00:00,25.2,4.8,30.30,West,270,1.6,3.4,41,0.00,,CLR,0.00,VWS V14.01,2013-02-20 09:00:00,
2013-02-20 04:05:00,25.0,4.6,30.30,WNW,292,2.2,5.8,41,0.00,,CLR,0.00,VWS V14.01,2013-02-20 09:05:00,
2013-02-20 04:10:00,24.8,5.0,30.30,WNW,292,1.6,5.8,42,0.00,,CLR,0.00,VWS V14.01,2013-02-20 09:10:00,
2013-02-20 04:15:00,24.8,5.0,30.30,West,270,1.3,5.8,42,0.00,,CLR,0.00,VWS V14.01,2013-02-20 09:15:00,
2013-02-20 04:20:00,24.6,4.8,30.30,WNW,292,0.0,5.8,42,0.00,,CLR,0.00,VWS V14.01,2013-02-20 09:20:00,
2013-02-20 04:25:00,24.6,4.8,30.30,West,270,2.2,5.8,42,0.00,,CLR,0.00,VWS V14.01,2013-02-20 09:25:00,
2013-02-20 04:30:00,24.4,4.7,30.30,NNW,338,2.7,5.8,42,0.00,,CLR,0.00,VWS V14.01,2013-02-20 09:30:00,
2013-02-20 04:35:00,24.4,4.7,30.30,NNW,338,1.3,5.8,42,0.00,,CLR,0.00,VWS V14.01,2013-02-20 09:35:00,
2013-02-20 04:40:00,24.4,4.7,30.30,NNW,338,2.5,5.8,42,0.00,,CLR,0.00,VWS V14.01,2013-02-20 09:40:00,
2013-02-20 04:45:00,24.3,4.5,30.30,West,270,2.7,5.8,42,0.00,,CLR,0.00,VWS V14.01,2013-02-20 09:45:00,
2013-02-20 04:50:00,24.3,4.5,30.30,WNW,292,2.0,5.8,42,0.00,,CLR,0.00,VWS V14.01,2013-02-20 09:50:00,
2013-02-20 04:55:00,24.1,4.8,30.30,WNW,292,4.9,5.8,43,0.00,,CLR,0.00,VWS V14.01,2013-02-20 09:55:00,
2013-02-20 05:00:00,24.3,4.5,30.30,West,270,2.5,5.8,42,0.00,,CLR,0.00,VWS V14.01,2013-02-20 10:00:00,
2013-02-20 05:05:00,24.3,4.5,30.30,NW,315,3.4,5.8,42,0.00,,CLR,0.00,VWS V14.01,2013-02-20 10:05:00,
2013-02-20 05:10:00,24.1,4.8,30.30,WNW,292,2.7,5.8,43,0.00,,CLR,0.00,VWS V14.01,2013-02-20 10:10:00,
2013-02-20 05:15:00,24.1,4.8,30.30,ENE,68,2.7,5.8,43,0.00,,CLR,0.00,VWS V14.01,2013-02-20 10:15:00,
2013-02-20 05:20:00,24.1,4.8,30.30,NNW,338,2.7,5.8,43,0.00,,CLR,0.00,VWS V14.01,2013-02-20 10:20:00,
2013-02-20 05:25:00,24.1,4.8,30.30,WNW,292,2.2,6.3,43,0.00,,CLR,0.00,VWS V14.01,2013-02-20 10:25:00,
2013-02-20 05:30:00,24.1,4.8,30.30,WNW,292,2.9,6.3,43,0.00,,CLR,0.00,VWS V14.01,2013-02-20 10:30:00,
2013-02-20 05:35:00,23.9,4.7,30.30,WNW,292,2.9,6.3,43,0.00,,CLR,0.00,VWS V14.01,2013-02-20 10:35:00,
2013-02-20 05:40:00,23.9,4.7,30.30,WNW,292,2.0,6.3,43,0.00,,CLR,0.00,VWS V14.01,2013-02-20 10:40:00,
2013-02-20 05:45:00,23.9,4.7,30.30,WNW,292,2.0,6.3,43,0.00,,CLR,0.00,VWS V14.01,2013-02-20 10:45:00,
2013-02-20 05:50:00,23.7,4.5,30.30,WNW,292,0.0,6.3,43,0.00,,CLR,0.00,VWS V14.01,2013-02-20 10:50:00,
2013-02-20 05:55:00,23.7,4.5,30.30,WNW,292,2.5,6.3,43,0.00,,CLR,0.00,VWS V14.01,2013-02-20 10:55:00,
2013-02-20 06:00:00,23.5,4.3,30.30,WNW,292,2.0,2.7,43,0.00,,CLR,0.00,VWS V14.01,2013-02-20 11:00:00,
2013-02-20 06:05:00,23.5,4.3,30.30,NW,315,3.4,3.6,43,0.00,,CLR,0.00,VWS V14.01,2013-02-20 11:05:00,
2013-02-20 06:10:00,23.5,4.3,30.30,NNW,338,2.5,3.6,43,0.00,,CLR,0.00,VWS V14.01,2013-02-20 11:10:00,
2013-02-20 06:15:00,23.5,4.3,30.30,WNW,292,0.9,3.6,43,0.00,,CLR,0.00,VWS V14.01,2013-02-20 11:15:00,
2013-02-20 06:20:00,23.4,4.2,30.30,WNW,292,0.9,3.6,43,0.00,,CLR,0.00,VWS V14.01,2013-02-20 11:20:00,
2013-02-20 06:25:00,23.4,4.2,30.33,WNW,292,2.0,3.6,43,0.00,,CLR,0.00,VWS V14.01,2013-02-20 11:25:00,
2013-02-20 06:29:00,23.4,4.7,30.33,WNW,292,1.3,3.6,44,0.00,,CLR,0.00,VWS V14.01,2013-02-20 11:29:00,
2013-02-20 06:34:00,23.2,4.5,30.33,North,0,1.3,3.6,44,0.00,,CLR,0.00,VWS V14.01,2013-02-20 11:34:00,
2013-02-20 06:40:00,23.2,4.5,30.33,WNW,292,2.0,3.6,44,0.00,,CLR,0.00,VWS V14.01,2013-02-20 11:40:00,
2013-02-20 06:44:00,23.2,4.5,30.33,NNW,338,0.0,3.6,44,0.00,,CLR,0.00,VWS V14.01,2013-02-20 11:44:00,
2013-02-20 06:49:00,23.2,4.5,30.33,West,270,1.1,3.6,44,0.00,,CLR,0.00,VWS V14.01,2013-02-20 11:49:00,
2013-02-20 06:54:00,23.0,4.8,30.33,WNW,292,2.2,3.6,45,0.00,,CLR,0.00,VWS V14.01,2013-02-20 11:54:00,
2013-02-20 06:59:00,23.0,4.8,30.33,West,270,1.1,2.2,45,0.00,,CLR,0.00,VWS V14.01,2013-02-20 11:59:00,
2013-02-20 07:04:00,22.8,4.7,30.33,WNW,292,0.0,2.7,45,0.00,,CLR,0.00,VWS V14.01,2013-02-20 12:04:00,
2013-02-20 07:09:00,22.8,4.7,30.33,West,270,0.9,3.1,45,0.00,,CLR,0.00,VWS V14.01,2013-02-20 12:09:00,
2013-02-20 07:14:00,22.8,4.7,30.33,West,270,0.0,3.1,45,0.00,,CLR,0.00,VWS V14.01,2013-02-20 12:14:00,
2013-02-20 07:19:00,22.8,4.7,30.33,West,270,1.6,3.1,45,0.00,,CLR,0.00,VWS V14.01,2013-02-20 12:19:00,
2013-02-20 07:24:00,22.8,4.7,30.33,WSW,248,2.5,3.1,45,0.00,,CLR,0.00,VWS V14.01,2013-02-20 12:24:00,
2013-02-20 07:29:00,22.8,4.7,30.33,WNW,292,2.0,3.1,45,0.00,,CLR,0.00,VWS V14.01,2013-02-20 12:29:00,
2013-02-20 07:34:00,22.8,4.7,30.33,West,270,2.9,3.1,45,0.00,,CLR,0.00,VWS V14.01,2013-02-20 12:34:00,
2013-02-20 07:39:00,22.8,5.2,30.33,WSW,248,2.2,3.1,46,0.00,,CLR,0.00,VWS V14.01,2013-02-20 12:39:00,
2013-02-20 07:44:00,22.8,5.2,30.33,West,270,0.9,3.1,46,0.00,,CLR,0.00,VWS V14.01,2013-02-20 12:44:00,
2013-02-20 07:49:00,22.8,5.2,30.33,West,270,2.0,3.1,46,0.00,,CLR,0.00,VWS V14.01,2013-02-20 12:49:00,
2013-02-20 07:54:00,23.0,5.3,30.30,WNW,292,2.0,3.1,46,0.00,,CLR,0.00,VWS V14.01,2013-02-20 12:54:00,
2013-02-20 07:59:00,23.0,5.3,30.30,WNW,292,2.5,2.9,46,0.00,,CLR,0.00,VWS V14.01,2013-02-20 12:59:00,
2013-02-20 08:04:00,23.2,5.0,30.30,WSW,248,2.0,3.8,45,0.00,,CLR,0.00,VWS V14.01,2013-02-20 13:04:00,
2013-02-20 08:09:00,23.2,5.0,30.33,West,270,3.4,4.7,45,0.00,,CLR,0.00,VWS V14.01,2013-02-20 13:09:00,
2013-02-20 08:14:00,23.4,5.2,30.33,NNW,338,5.6,5.6,45,0.00,,CLR,0.00,VWS V14.01,2013-02-20 13:14:00,
2013-02-20 08:19:00,23.4,5.2,30.33,WSW,248,3.1,5.8,45,0.00,,CLR,0.00,VWS V14.01,2013-02-20 13:19:00,
2013-02-20 08:24:00,23.5,4.8,30.33,NNW,338,4.0,5.8,44,0.00,,CLR,0.00,VWS V14.01,2013-02-20 13:24:00,
2013-02-20 08:29:00,23.7,5.0,30.33,WNW,292,1.1,6.0,44,0.00,,CLR,0.00,VWS V14.01,2013-02-20 13:29:00,
2013-02-20 08:34:00,23.7,5.0,30.33,North,0,3.4,6.5,44,0.00,,CLR,0.00,VWS V14.01,2013-02-20 13:34:00,
2013-02-20 08:39:00,23.7,5.0,30.33,NW,315,2.9,9.0,44,0.00,,CLR,0.00,VWS V14.01,2013-02-20 13:39:00,
2013-02-20 08:44:00,23.7,5.0,30.33,NNW,338,3.1,9.0,44,0.00,,CLR,0.00,VWS V14.01,2013-02-20 13:44:00,
2013-02-20 08:49:00,23.9,5.2,30.33,WNW,292,3.8,9.0,44,0.00,,CLR,0.00,VWS V14.01,2013-02-20 13:49:00,
2013-02-20 08:54:00,24.3,5.0,30.33,WSW,248,3.4,9.0,43,0.00,,CLR,0.00,VWS V14.01,2013-02-20 13:54:00,
2013-02-20 08:59:00,24.4,5.2,30.33,West,270,2.2,4.9,43,0.00,,CLR,0.00,VWS V14.01,2013-02-20 13:59:00,
2013-02-20 09:04:00,24.6,5.3,30.33,NNE,22,2.7,4.9,43,0.00,,CLR,0.00,VWS V14.01,2013-02-20 14:04:00,
2013-02-20 09:09:00,24.6,5.3,30.33,NW,315,2.7,5.4,43,0.00,,CLR,0.00,VWS V14.01,2013-02-20 14:09:00,
2013-02-20 09:14:00,24.6,4.8,30.33,WNW,292,1.3,7.2,42,0.00,,CLR,0.00,VWS V14.01,2013-02-20 14:14:00,
2013-02-20 09:19:00,24.8,5.5,30.33,WSW,248,3.1,7.2,43,0.00,,CLR,0.00,VWS V14.01,2013-02-20 14:19:00,
2013-02-20 09:24:00,25.0,5.1,30.33,WSW,248,1.3,7.2,42,0.00,,CLR,0.00,VWS V14.01,2013-02-20 14:24:00,
2013-02-20 09:29:00,25.2,5.3,30.33,WNW,292,3.1,7.2,42,0.00,,CLR,0.00,VWS V14.01,2013-02-20 14:29:00,
2013-02-20 09:34:00,25.3,5.5,30.33,West,270,2.0,7.2,42,0.00,,CLR,0.00,VWS V14.01,2013-02-20 14:34:00,
2013-02-20 09:39:00,25.3,5.5,30.36,West,270,2.5,7.2,42,0.00,,CLR,0.00,VWS V14.01,2013-02-20 14:39:00,
2013-02-20 09:44:00,25.7,5.8,30.36,WNW,292,2.2,7.2,42,0.00,,CLR,0.00,VWS V14.01,2013-02-20 14:44:00,
2013-02-20 09:49:00,26.1,5.6,30.36,WNW,292,2.5,7.2,41,0.00,,CLR,0.00,VWS V14.01,2013-02-20 14:49:00,
2013-02-20 09:54:00,26.1,5.6,30.36,NNW,338,5.6,7.2,41,0.00,,CLR,0.00,VWS V14.01,2013-02-20 14:54:00,
2013-02-20 09:59:00,26.1,5.1,30.36,NW,315,3.4,4.3,40,0.00,,CLR,0.00,VWS V14.01,2013-02-20 14:59:00,
2013-02-20 10:04:00,26.2,4.7,30.36,WNW,292,2.9,7.2,39,0.00,,CLR,0.00,VWS V14.01,2013-02-20 15:04:00,
2013-02-20 10:09:00,26.4,5.4,30.39,WSW,248,2.0,7.2,40,0.00,,CLR,0.00,VWS V14.01,2013-02-20 15:09:00,
2013-02-20 10:14:00,26.8,5.7,30.39,West,270,4.0,7.2,40,0.00,,CLR,0.00,VWS V14.01,2013-02-20 15:14:00,
2013-02-20 10:19:00,26.8,4.6,30.39,NNW,338,2.2,7.2,38,0.00,,CLR,0.00,VWS V14.01,2013-02-20 15:19:00,
2013-02-20 10:24:00,27.0,4.8,30.39,NW,315,2.5,7.2,38,0.00,,CLR,0.00,VWS V14.01,2013-02-20 15:24:00,
2013-02-20 10:29:00,27.3,4.5,30.39,NW,315,4.9,7.2,37,0.00,,CLR,0.00,VWS V14.01,2013-02-20 15:29:00,
2013-02-20 10:34:00,27.3,3.9,30.39,WNW,292,2.7,8.5,36,0.00,,CLR,0.00,VWS V14.01,2013-02-20 15:34:00,
2013-02-20 10:39:00,27.5,4.7,30.39,WNW,292,2.2,8.5,37,0.00,,CLR,0.00,VWS V14.01,2013-02-20 15:39:00,
2013-02-20 10:44:00,27.9,5.0,30.39,West,270,4.9,8.5,37,0.00,,CLR,0.00,VWS V14.01,2013-02-20 15:44:00,
2013-02-20 10:49:00,28.2,4.7,30.39,WNW,292,8.1,8.5,36,0.00,,CLR,0.00,VWS V14.01,2013-02-20 15:49:00,
2013-02-20 10:54:00,28.4,4.2,30.39,WSW,248,4.0,8.5,35,0.00,,CLR,0.00,VWS V14.01,2013-02-20 15:54:00,
2013-02-20 10:59:00,28.2,3.5,30.39,NNW,338,1.3,7.6,34,0.00,,CLR,0.00,VWS V14.01,2013-02-20 15:59:00,
2013-02-20 11:04:00,28.4,3.6,30.39,WNW,292,3.6,7.8,34,0.00,,CLR,0.00,VWS V14.01,2013-02-20 16:04:00,
2013-02-20 11:09:00,28.4,4.2,30.39,WNW,292,2.7,7.8,35,0.00,,CLR,0.00,VWS V14.01,2013-02-20 16:09:00,
2013-02-20 11:14:00,28.9,4.7,30.39,NW,315,3.6,7.8,35,0.00,,CLR,0.00,VWS V14.01,2013-02-20 16:14:00,
2013-02-20 11:19:00,29.5,4.6,30.39,WNW,292,3.6,7.8,34,0.00,,CLR,0.00,VWS V14.01,2013-02-20 16:19:00,
2013-02-20 11:24:00,29.7,4.7,30.39,WNW,292,5.4,8.1,34,0.00,,CLR,0.00,VWS V14.01,2013-02-20 16:24:00,
2013-02-20 11:29:00,29.8,4.2,30.39,WNW,292,3.4,8.1,33,0.00,,CLR,0.00,VWS V14.01,2013-02-20 16:29:00,
2013-02-20 11:34:00,30.2,4.6,30.39,NNW,338,4.9,8.1,33,0.00,,CLR,0.00,VWS V14.01,2013-02-20 16:34:00,
2013-02-20 11:39:00,30.4,4.1,30.39,NNE,22,3.1,8.1,32,0.00,,CLR,0.00,VWS V14.01,2013-02-20 16:39:00,
2013-02-20 11:44:00,30.7,4.4,30.39,WNW,292,2.5,8.1,32,0.00,,CLR,0.00,VWS V14.01,2013-02-20 16:44:00,
2013-02-20 11:49:00,31.1,4.7,30.39,WNW,292,3.6,8.1,32,0.00,,CLR,0.00,VWS V14.01,2013-02-20 16:49:00,
2013-02-20 11:54:00,30.9,4.5,30.39,NNE,22,2.7,8.1,32,0.00,,CLR,0.00,VWS V14.01,2013-02-20 16:54:00,
2013-02-20 11:59:00,31.1,4.7,30.39,WSW,248,4.0,8.5,32,0.00,,CLR,0.00,VWS V14.01,2013-02-20 16:59:00,
2013-02-20 12:04:00,31.5,5.0,30.39,NNW,338,5.4,8.5,32,0.00,,CLR,0.00,VWS V14.01,2013-02-20 17:04:00,
2013-02-20 12:09:00,31.6,5.2,30.36,WSW,248,3.4,8.5,32,0.00,,CLR,0.00,VWS V14.01,2013-02-20 17:09:00,
2013-02-20 12:14:00,32.2,5.0,30.36,NW,315,4.3,8.5,31,0.00,,CLR,0.00,VWS V14.01,2013-02-20 17:14:00,
2013-02-20 12:19:00,32.4,5.1,30.36,NNW,338,4.0,8.5,31,0.00,,CLR,0.00,VWS V14.01,2013-02-20 17:19:00,
2013-02-20 12:24:00,32.7,5.4,30.39,NW,315,1.3,8.5,31,0.00,,CLR,0.00,VWS V14.01,2013-02-20 17:24:00,
2013-02-20 12:29:00,32.5,5.3,30.39,NNW,338,3.6,8.5,31,0.00,,CLR,0.00,VWS V14.01,2013-02-20 17:29:00,
2013-02-20 12:34:00,32.4,5.1,30.39,North,0,2.7,8.5,31,0.00,,CLR,0.00,VWS V14.01,2013-02-20 17:34:00,
2013-02-20 12:39:00,32.9,5.6,30.39,NNE,22,4.9,9.6,31,0.00,,CLR,0.00,VWS V14.01,2013-02-20 17:39:00,
2013-02-20 12:44:00,33.1,5.8,30.39,WNW,292,1.6,9.6,31,0.00,,CLR,0.00,VWS V14.01,2013-02-20 17:44:00,
2013-02-20 12:49:00,33.6,6.2,30.39,WNW,292,3.1,9.6,31,0.00,,CLR,0.00,VWS V14.01,2013-02-20 17:49:00,
2013-02-20 12:54:00,33.8,5.7,30.39,NW,315,8.7,9.6,30,0.00,,CLR,0.00,VWS V14.01,2013-02-20 17:54:00,
2013-02-20 12:59:00,34.2,6.0,30.39,WNW,292,3.6,7.2,30,0.00,,CLR,0.00,VWS V14.01,2013-02-20 17:59:00,
2013-02-20 13:04:00,34.3,6.1,30.39,North,0,5.6,7.8,30,0.00,,CLR,0.00,VWS V14.01,2013-02-20 18:04:00,
2013-02-20 13:09:00,34.3,6.1,30.36,North,0,2.7,7.8,30,0.00,,CLR,0.00,VWS V14.01,2013-02-20 18:09:00,
2013-02-20 13:14:00,34.9,6.6,30.36,NNW,338,2.7,7.8,30,0.00,,CLR,0.00,VWS V14.01,2013-02-20 18:14:00,
2013-02-20 13:19:00,34.9,6.6,30.36,WSW,248,2.2,10.1,30,0.00,,CLR,0.00,VWS V14.01,2013-02-20 18:19:00,
2013-02-20 13:24:00,35.1,6.8,30.36,WNW,292,2.7,10.1,30,0.00,,CLR,0.00,VWS V14.01,2013-02-20 18:24:00,
2013-02-20 13:29:00,35.2,6.9,30.36,WNW,292,6.5,10.1,30,0.00,,CLR,0.00,VWS V14.01,2013-02-20 18:29:00,
2013-02-20 13:34:00,34.9,6.6,30.36,WNW,292,3.1,10.1,30,0.00,,CLR,0.00,VWS V14.01,2013-02-20 18:34:00,
2013-02-20 13:39:00,34.7,6.4,30.33,West,270,3.6,10.1,30,0.00,,CLR,0.00,VWS V14.01,2013-02-20 18:39:00,
2013-02-20 13:44:00,34.7,6.4,30.33,WNW,292,2.5,10.1,30,0.00,,CLR,0.00,VWS V14.01,2013-02-20 18:44:00,
2013-02-20 13:49:00,34.5,6.3,30.33,SSW,202,4.0,10.1,30,0.00,,CLR,0.00,VWS V14.01,2013-02-20 18:49:00,
2013-02-20 13:54:00,34.5,6.3,30.33,North,0,6.3,10.1,30,0.00,,CLR,0.00,VWS V14.01,2013-02-20 18:54:00,
2013-02-20 13:59:00,34.5,6.3,30.33,North,0,5.4,9.8,30,0.00,,CLR,0.00,VWS V14.01,2013-02-20 18:59:00,
2013-02-20 14:04:00,34.7,6.4,30.33,NNE,22,6.5,9.8,30,0.00,,CLR,0.00,VWS V14.01,2013-02-20 19:04:00,
2013-02-20 14:09:00,34.7,6.4,30.33,North,0,5.4,9.8,30,0.00,,CLR,0.00,VWS V14.01,2013-02-20 19:09:00,
2013-02-20 14:14:00,34.7,6.4,30.33,NNE,22,3.4,9.8,30,0.00,,CLR,0.00,VWS V14.01,2013-02-20 19:14:00,
2013-02-20 14:19:00,34.9,6.6,30.33,NNW,338,5.8,9.8,30,0.00,,CLR,0.00,VWS V14.01,2013-02-20 19:19:00,
2013-02-20 14:24:00,34.9,6.6,30.33,NNW,338,6.5,9.8,30,0.00,,CLR,0.00,VWS V14.01,2013-02-20 19:24:00,
2013-02-20 14:29:00,34.9,6.6,30.33,NNE,22,4.9,11.0,30,0.00,,CLR,0.00,VWS V14.01,2013-02-20 19:29:00,
2013-02-20 14:34:00,34.9,6.6,30.33,NNE,22,5.4,11.0,30,0.00,,CLR,0.00,VWS V14.01,2013-02-20 19:34:00,
2013-02-20 14:39:00,35.2,6.9,30.33,NNE,22,7.4,11.0,30,0.00,,CLR,0.00,VWS V14.01,2013-02-20 19:39:00,
2013-02-20 14:44:00,34.9,6.6,30.33,NE,45,8.5,11.0,30,0.00,,CLR,0.00,VWS V14.01,2013-02-20 19:44:00,
2013-02-20 14:49:00,34.9,6.6,30.33,WNW,292,2.9,11.0,30,0.00,,CLR,0.00,VWS V14.01,2013-02-20 19:49:00,
2013-02-20 14:54:00,35.2,6.9,30.33,NNE,22,5.4,11.0,30,0.00,,CLR,0.00,VWS V14.01,2013-02-20 19:54:00,
2013-02-20 14:59:00,34.9,4.3,30.33,WNW,292,2.7,7.6,27,0.00,,CLR,0.00,VWS V14.01,2013-02-20 19:59:00,
2013-02-20 15:04:00,34.9,6.6,30.33,NNW,338,3.1,7.6,30,0.00,,CLR,0.00,VWS V14.01,2013-02-20 20:04:00,
2013-02-20 15:09:00,35.1,4.5,30.33,NNW,338,10.3,10.3,27,0.00,,CLR,0.00,VWS V14.01,2013-02-20 20:09:00,
2013-02-20 15:14:00,35.1,4.5,30.33,WNW,292,3.8,10.3,27,0.00,,CLR,0.00,VWS V14.01,2013-02-20 20:14:00,
2013-02-20 15:19:00,35.2,6.9,30.33,NE,45,4.3,10.3,30,0.00,,CLR,0.00,VWS V14.01,2013-02-20 20:19:00,
2013-02-20 15:24:00,35.2,4.6,30.33,North,0,4.7,10.3,27,0.00,,CLR,0.00,VWS V14.01,2013-02-20 20:24:00,
2013-02-20 15:29:00,35.4,7.1,30.33,NNW,338,2.7,10.3,30,0.00,,CLR,0.00,VWS V14.01,2013-02-20 20:29:00,
2013-02-20 15:34:00,35.2,4.6,30.33,NNW,338,6.3,10.3,27,0.00,,CLR,0.00,VWS V14.01,2013-02-20 20:34:00,
2013-02-20 15:39:00,35.1,4.5,30.33,NNW,338,4.7,10.3,27,0.00,,CLR,0.00,VWS V14.01,2013-02-20 20:39:00,
2013-02-20 15:44:00,34.9,4.3,30.33,NNW,338,3.1,10.3,27,0.00,,CLR,0.00,VWS V14.01,2013-02-20 20:44:00,
2013-02-20 15:49:00,35.1,4.5,30.33,NNW,338,3.1,10.3,27,0.00,,CLR,0.00,VWS V14.01,2013-02-20 20:49:00,
2013-02-20 15:54:00,35.2,4.6,30.33,WNW,292,2.5,10.3,27,0.00,,CLR,0.00,VWS V14.01,2013-02-20 20:54:00,
2013-02-20 15:59:00,35.4,7.1,30.33,NW,315,3.4,3.8,30,0.00,,CLR,0.00,VWS V14.01,2013-02-20 20:59:00,
2013-02-20 16:04:00,35.6,6.5,30.33,North,0,8.7,8.7,29,0.00,,CLR,0.00,VWS V14.01,2013-02-20 21:04:00,
2013-02-20 16:09:00,35.4,4.8,30.33,North,0,7.6,8.7,27,0.00,,CLR,0.00,VWS V14.01,2013-02-20 21:09:00,
2013-02-20 16:14:00,35.2,4.6,30.33,North,0,3.8,8.7,27,0.00,,CLR,0.00,VWS V14.01,2013-02-20 21:14:00,
2013-02-20 16:19:00,35.4,7.1,30.33,WNW,292,3.6,8.7,30,0.00,,CLR,0.00,VWS V14.01,2013-02-20 21:19:00,
2013-02-20 16:24:00,35.4,7.1,30.33,WNW,292,2.5,8.7,30,0.00,,CLR,0.00,VWS V14.01,2013-02-20 21:24:00,
2013-02-20 16:29:00,35.6,6.5,30.33,NNW,338,2.9,8.7,29,0.00,,CLR,0.00,VWS V14.01,2013-02-20 21:29:00,
2013-02-20 16:34:00,35.2,4.6,30.33,NNW,338,2.5,8.7,27,0.00,,CLR,0.00,VWS V14.01,2013-02-20 21:34:00,
2013-02-20 16:39:00,35.2,6.9,30.33,NNW,338,2.2,8.7,30,0.00,,CLR,0.00,VWS V14.01,2013-02-20 21:39:00,
2013-02-20 16:44:00,35.1,4.5,30.33,NNW,338,2.5,8.7,27,0.00,,CLR,0.00,VWS V14.01,2013-02-20 21:44:00,
2013-02-20 16:49:00,35.1,4.5,30.33,North,0,3.8,9.6,27,0.00,,OVC200,0.00,VWS V14.01,2013-02-20 21:49:00,
2013-02-20 16:54:00,34.9,4.3,30.33,NNW,338,3.8,9.6,27,0.00,,OVC200,0.00,VWS V14.01,2013-02-20 21:54:00,
2013-02-20 16:59:00,34.9,4.3,30.33,NNW,338,2.0,4.9,27,0.00,,OVC200,0.00,VWS V14.01,2013-02-20 21:59:00,
2013-02-20 17:04:00,34.5,4.0,30.33,North,0,3.1,5.8,27,0.00,,OVC200,0.00,VWS V14.01,2013-02-20 22:04:00,
2013-02-20 17:09:00,34.5,4.0,30.33,NNE,22,3.1,5.8,27,0.00,,OVC200,0.00,VWS V14.01,2013-02-20 22:09:00,
2013-02-20 17:14:00,34.5,6.3,30.33,NNW,338,4.3,6.5,30,0.00,,OVC200,0.00,VWS V14.01,2013-02-20 22:14:00,
2013-02-20 17:19:00,34.3,3.8,30.33,NNE,22,2.9,6.5,27,0.00,,OVC200,0.00,VWS V14.01,2013-02-20 22:19:00,
2013-02-20 17:24:00,34.2,6.0,30.30,NNW,338,2.5,6.5,30,0.00,,OVC200,0.00,VWS V14.01,2013-02-20 22:24:00,
2013-02-20 17:29:00,34.2,6.0,30.30,NW,315,2.9,6.5,30,0.00,,OVC200,0.00,VWS V14.01,2013-02-20 22:29:00,
2013-02-20 17:34:00,34.0,5.8,30.30,NNW,338,5.8,6.5,30,0.00,,OVC200,0.00,VWS V14.01,2013-02-20 22:34:00,
2013-02-20 17:39:00,34.0,5.8,30.33,NNE,22,2.9,6.5,30,0.00,,OVC200,0.00,VWS V14.01,2013-02-20 22:39:00,
2013-02-20 17:44:00,33.8,5.7,30.33,ENE,68,2.5,6.5,30,0.00,,OVC200,0.00,VWS V14.01,2013-02-20 22:44:00,
2013-02-20 17:49:00,33.8,5.7,30.33,NNE,22,4.3,6.5,30,0.00,,OVC190,0.00,VWS V14.01,2013-02-20 22:49:00,
2013-02-20 17:54:00,33.8,5.7,30.33,North,0,4.3,6.5,30,0.00,,OVC190,0.00,VWS V14.01,2013-02-20 22:54:00,
2013-02-20 17:59:00,33.6,5.5,30.33,North,0,2.9,4.3,30,0.00,,OVC190,0.00,VWS V14.01,2013-02-20 22:59:00,
2013-02-20 18:04:00,33.4,5.3,30.33,North,0,2.0,4.9,30,0.00,,OVC190,0.00,VWS V14.01,2013-02-20 23:04:00,
2013-02-20 18:09:00,33.3,5.2,30.33,North,0,2.7,6.3,30,0.00,,OVC190,0.00,VWS V14.01,2013-02-20 23:09:00,
2013-02-20 18:14:00,33.3,5.2,30.33,North,0,4.9,6.3,30,0.00,,OVC190,0.00,VWS V14.01,2013-02-20 23:14:00,
2013-02-20 18:19:00,33.1,5.0,30.33,NNW,338,3.4,6.3,30,0.00,,OVC180,0.00,VWS V14.01,2013-02-20 23:19:00,
2013-02-20 18:24:00,32.9,4.9,30.33,NNW,338,4.0,8.1,30,0.00,,OVC180,0.00,VWS V14.01,2013-02-20 23:24:00,
2013-02-20 18:29:00,32.7,4.7,30.33,NNE,22,2.5,8.1,30,0.00,,OVC180,0.00,VWS V14.01,2013-02-20 23:29:00,
2013-02-20 18:34:00,32.7,4.7,30.33,North,0,3.8,8.1,30,0.00,,OVC180,0.00,VWS V14.01,2013-02-20 23:34:00,
2013-02-20 18:39:00,32.5,4.6,30.33,NNE,22,4.9,8.1,30,0.00,,OVC180,0.00,VWS V14.01,2013-02-20 23:39:00,
2013-02-20 18:44:00,32.5,4.6,30.33,NNE,22,4.3,8.1,30,0.00,,OVC180,0.00,VWS V14.01,2013-02-20 23:44:00,
2013-02-20 18:49:00,32.4,4.4,30.33,NNW,338,5.8,8.1,30,0.00,,OVC180,0.00,VWS V14.01,2013-02-20 23:49:00,
2013-02-20 18:54:00,32.2,4.2,30.33,NNW,338,4.0,8.1,30,0.00,,OVC180,0.00,VWS V14.01,2013-02-20 23:54:00,
2013-02-20 18:59:00,32.0,4.1,30.33,NNE,22,6.9,7.2,30,0.00,,OVC180,0.00,VWS V14.01,2013-02-20 23:59:00,
2013-02-20 19:04:00,32.0,4.1,30.33,North,0,7.2,7.2,30,0.00,,OVC180,0.00,VWS V14.01,2013-02-21 00:04:00,
2013-02-20 19:09:00,32.0,4.1,30.30,North,0,4.3,8.1,30,0.00,,OVC180,0.00,VWS V14.01,2013-02-21 00:09:00,
2013-02-20 19:14:00,31.8,3.9,30.30,North,0,4.9,8.1,30,0.00,,OVC180,0.00,VWS V14.01,2013-02-21 00:14:00,
2013-02-20 19:19:00,31.8,3.9,30.30,NNE,22,2.7,8.1,30,0.00,,OVC160,0.00,VWS V14.01,2013-02-21 00:19:00,
2013-02-20 19:24:00,31.8,3.9,30.33,NE,45,2.7,8.1,30,0.00,,OVC160,0.00,VWS V14.01,2013-02-21 00:24:00,
2013-02-20 19:29:00,31.8,3.9,30.33,North,0,8.1,8.1,30,0.00,,OVC160,0.00,VWS V14.01,2013-02-21 00:29:00,
2013-02-20 19:34:00,31.8,3.9,30.33,NNE,22,4.3,8.1,30,0.00,,OVC160,0.00,VWS V14.01,2013-02-21 00:34:00,
2013-02-20 19:39:00,31.8,3.9,30.33,North,0,2.9,8.1,30,0.00,,OVC160,0.00,VWS V14.01,2013-02-21 00:39:00,
2013-02-20 19:44:00,31.8,3.9,30.33,NE,45,5.4,8.1,30,0.00,,OVC160,0.00,VWS V14.01,2013-02-21 00:44:00,
2013-02-20 19:49:00,31.8,3.9,30.33,North,0,5.8,8.1,30,0.00,,OVC160,0.00,VWS V14.01,2013-02-21 00:49:00,
2013-02-20 19:54:00,31.8,3.9,30.33,NNW,338,2.9,8.1,30,0.00,,OVC160,0.00,VWS V14.01,2013-02-21 00:54:00,
2013-02-20 19:59:00,31.8,3.9,30.33,NNE,22,4.3,6.3,30,0.00,,OVC160,0.00,VWS V14.01,2013-02-21 00:59:00,
2013-02-20 20:04:00,31.8,3.9,30.33,North,0,1.3,6.3,30,0.00,,OVC160,0.00,VWS V14.01,2013-02-21 01:04:00,
2013-02-20 20:09:00,31.8,4.6,30.33,NNE,22,2.9,6.3,31,0.00,,OVC160,0.00,VWS V14.01,2013-02-21 01:09:00,
2013-02-20 20:14:00,31.8,3.9,30.33,NE,45,3.4,6.3,30,0.00,,OVC160,0.00,VWS V14.01,2013-02-21 01:14:00,
2013-02-20 20:19:00,31.6,4.5,30.33,NNE,22,2.5,6.3,31,0.00,,OVC160,0.00,VWS V14.01,2013-02-21 01:19:00,
2013-02-20 20:24:00,31.6,4.5,30.33,NE,45,4.3,6.3,31,0.00,,OVC160,0.00,VWS V14.01,2013-02-21 01:24:00,
2013-02-20 20:29:00,31.6,4.5,30.33,ENE,68,2.5,6.3,31,0.00,,OVC160,0.00,VWS V14.01,2013-02-21 01:29:00,
2013-02-20 20:34:00,31.6,4.5,30.33,North,0,2.9,6.3,31,0.00,,OVC160,0.00,VWS V14.01,2013-02-21 01:34:00,
2013-02-20 20:39:00,31.6,4.5,30.33,North,0,2.0,6.3,31,0.00,,OVC160,0.00,VWS V14.01,2013-02-21 01:39:00,
2013-02-20 20:44:00,31.6,4.5,30.33,NW,315,2.2,6.3,31,0.00,,OVC160,0.00,VWS V14.01,2013-02-21 01:44:00,
2013-02-20 20:49:00,31.5,4.3,30.33,NNW,338,2.2,6.3,31,0.00,,OVC160,0.00,VWS V14.01,2013-02-21 01:49:00,
2013-02-20 20:54:00,31.3,4.2,30.36,NNE,22,2.7,6.3,31,0.00,,OVC160,0.00,VWS V14.01,2013-02-21 01:54:00,
2013-02-20 20:59:00,31.1,4.0,30.36,NNE,22,3.1,5.6,31,0.00,,OVC160,0.00,VWS V14.01,2013-02-21 01:59:00,
2013-02-20 21:04:00,31.1,4.0,30.36,NNE,22,2.7,5.6,31,0.00,,OVC160,0.00,VWS V14.01,2013-02-21 02:04:00,
2013-02-20 21:09:00,30.9,3.8,30.33,ENE,68,4.0,5.6,31,0.00,,OVC160,0.00,VWS V14.01,2013-02-21 02:09:00,
2013-02-20 21:14:00,30.7,3.7,30.33,NE,45,2.5,5.6,31,0.00,,OVC160,0.00,VWS V14.01,2013-02-21 02:14:00,
2013-02-20 21:19:00,30.7,3.7,30.33,NNE,22,2.2,5.6,31,0.00,,OVC140,0.00,VWS V14.01,2013-02-21 02:19:00,
2013-02-20 21:24:00,30.6,3.5,30.33,NNE,22,3.8,5.6,31,0.00,,OVC140,0.00,VWS V14.01,2013-02-21 02:24:00,
2013-02-20 21:29:00,30.6,3.5,30.33,NNE,22,2.5,5.6,31,0.00,,OVC140,0.00,VWS V14.01,2013-02-21 02:29:00,
2013-02-20 21:34:00,30.4,3.4,30.33,North,0,2.0,5.6,31,0.00,,OVC140,0.00,VWS V14.01,2013-02-21 02:34:00,
2013-02-20 21:39:00,30.4,3.4,30.33,NE,45,2.9,5.6,31,0.00,,OVC140,0.00,VWS V14.01,2013-02-21 02:39:00,
2013-02-20 21:44:00,30.4,3.4,30.33,NE,45,3.4,5.6,31,0.00,,OVC140,0.00,VWS V14.01,2013-02-21 02:44:00,
2013-02-20 21:49:00,30.2,3.2,30.33,NNE,22,3.1,5.6,31,0.00,,OVC140,0.00,VWS V14.01,2013-02-21 02:49:00,
2013-02-20 21:54:00,30.2,3.2,30.33,NNE,22,1.6,5.6,31,0.00,,OVC140,0.00,VWS V14.01,2013-02-21 02:54:00,
2013-02-20 21:59:00,30.0,3.1,30.33,NNE,22,0.9,4.0,31,0.00,,OVC140,0.00,VWS V14.01,2013-02-21 02:59:00,
2013-02-20 22:04:00,30.0,3.1,30.33,NE,45,1.3,4.0,31,0.00,,OVC140,0.00,VWS V14.01,2013-02-21 03:04:00,
2013-02-20 22:09:00,29.8,2.9,30.33,NE,45,0.0,4.0,31,0.00,,OVC140,0.00,VWS V14.01,2013-02-21 03:09:00,
2013-02-20 22:14:00,29.8,2.9,30.33,North,0,0.0,4.0,31,0.00,,OVC140,0.00,VWS V14.01,2013-02-21 03:14:00,
2013-02-20 22:19:00,29.7,2.7,30.33,NNW,338,1.1,4.0,31,0.00,,OVC120,0.00,VWS V14.01,2013-02-21 03:19:00,
2013-02-20 22:24:00,29.5,2.6,30.36,NNE,22,2.5,4.0,31,0.00,,OVC120,0.00,VWS V14.01,2013-02-21 03:24:00,
2013-02-20 22:29:00,29.5,2.6,30.36,NE,45,1.6,4.0,31,0.00,,OVC120,0.00,VWS V14.01,2013-02-21 03:29:00,
2013-02-20 22:34:00,29.5,3.3,30.36,NNE,22,3.6,6.3,32,0.00,,OVC120,0.00,VWS V14.01,2013-02-21 03:34:00,
2013-02-20 22:39:00,29.5,3.3,30.33,NE,45,3.1,7.2,32,0.00,,OVC120,0.00,VWS V14.01,2013-02-21 03:39:00,
2013-02-20 22:44:00,29.5,3.3,30.33,NNE,22,3.1,7.2,32,0.00,,OVC120,0.00,VWS V14.01,2013-02-21 03:44:00,
2013-02-20 22:49:00,29.5,3.3,30.33,NE,45,4.3,7.2,32,0.00,,OVC120,0.00,VWS V14.01,2013-02-21 03:49:00,
2013-02-20 22:54:00,29.5,3.3,30.36,NNE,22,4.9,7.2,32,0.00,,OVC120,0.00,VWS V14.01,2013-02-21 03:54:00,
2013-02-20 22:59:00,29.3,3.1,30.36,NE,45,2.5,4.9,32,0.00,,OVC120,0.00,VWS V14.01,2013-02-21 03:59:00,
2013-02-20 23:04:00,29.1,3.0,30.36,NE,45,2.7,4.9,32,0.00,,BKN220,0.00,VWS V14.01,2013-02-21 04:04:00,
2013-02-20 23:09:00,29.1,3.0,30.33,NNE,22,2.9,4.9,32,0.00,,BKN220,0.00,VWS V14.01,2013-02-21 04:09:00,
2013-02-20 23:14:00,28.9,3.5,30.33,NE,45,3.1,5.4,33,0.00,,BKN220,0.00,VWS V14.01,2013-02-21 04:14:00,
2013-02-20 23:19:00,28.8,3.3,30.33,NNE,22,2.2,6.5,33,0.00,,BKN220,0.00,VWS V14.01,2013-02-21 04:19:00,
2013-02-20 23:24:00,28.6,3.1,30.33,NNE,22,2.9,6.5,33,0.00,,BKN220,0.00,VWS V14.01,2013-02-21 04:24:00,
2013-02-20 23:29:00,28.6,3.8,30.33,NNE,22,3.1,6.5,34,0.00,,BKN220,0.00,VWS V14.01,2013-02-21 04:29:00,
2013-02-20 23:34:00,28.4,4.2,30.33,NE,45,5.4,6.5,35,0.00,,BKN220,0.00,VWS V14.01,2013-02-21 04:34:00,
2013-02-20 23:39:00,28.2,4.1,30.33,ENE,68,3.1,6.5,35,0.00,,BKN220,0.00,VWS V14.01,2013-02-21 04:39:00,
2013-02-20 23:44:00,28.0,4.5,30.33,NNE,22,2.5,6.5,36,0.00,,BKN220,0.00,VWS V14.01,2013-02-21 04:44:00,
2013-02-20 23:49:00,28.0,5.1,30.33,NE,45,2.7,6.5,37,0.00,,BKN220,0.00,VWS V14.01,2013-02-21 04:49:00,
2013-02-20 23:54:00,27.9,5.0,30.33,NNW,338,2.5,6.5,37,0.00,,BKN220,0.00,VWS V14.01,2013-02-21 04:54:00,
2013-02-20 23:59:00,27.9,5.0,30.33,NNE,22,2.7,6.5,37,0.00,,BKN220,0.00,VWS V14.01,2013-02-21 04:59:00,